Madison, WI

3:42 PM CST on November 14, 2019 (GMT -0600)
Dane County Regional-Truax

Weather History for KMSN - June, 2019

Change the Weather History Date:

Friday, June 14, 2019

  Actual Average Record
Temperature  
Mean Temperature 63 °F 67 °F  
Max Temperature 78 °F 78 °F 95 °F (1954)
Min Temperature 48 °F 56 °F 39 °F (1965)
Degree Days  
Heating Degree Days 2 2  
Month to date heating degree days 32 44  
Since 1 June heating degree days 32 44  
Since 1 July heating degree days 7491 7317  
Cooling Degree Days 0 4  
Month to date cooling degree days 25 37  
Year to date cooling degree days 45 67  
Since 1 June cooling degree days 25 37  
Growing Degree Days 13 (Base 50)    
Moisture  
Dew Point 47 °F    
Average Humidity 57    
Maximum Humidity 80    
Minimum Humidity 33    
Precipitation  
Precipitation T in 0.16 in 3.47 in (1880)
Month to date precipitation 1.45 2.11  
Year to date precipitation 17.26 13.94  
Snow  
Snow 0.00 in 0.00 in 0.00 in (2018)
Month to date snowfall 0.0 0.0  
Since 1 June snowfall 0.0 0.0  
Since 1 July snowfall 57.2 50.9  
Snow Depth 0.00 in    
Sea Level Pressure  
Sea Level Pressure 29.87 in    
Wind  
Wind Speed 10 mph (SSW)    
Max Wind Speed 21 mph    
Max Gust Speed 37 mph    
Visibility 10 miles    
Events Rain    
T = Trace of Precipitation, MM = Missing Value Source: NWS Daily Summary

Daily Weather History Graph

Daily Weather History Graph

Search for Another Location

Airport or City:

Astronomy

Jun. 14, 2019 Rise Set
Actual Time 5:17 AM CDT 8:38 PM CDT
Civil Twilight 4:41 AM CDT 9:13 PM CDT
Nautical Twilight 3:55 AM CDT 9:59 PM CDT
Astronomical Twilight 2:58 AM CDT 10:57 PM CDT
Moon 5:55 PM CDT 3:40 AM CDT
Length of Visible Light 16h 32m
Length of Day
15h 21m
Waxing Gibbous, 92% of the Moon is Illuminated
Jun 14
Waxing Gibbous
Jun 17
Full
Jun 25
Last Quarter
Jul 2
New
Jul 9
First Quarter

Hourly Weather History & Observations

Time (CDT) Temp. Dew Point Humidity Pressure Visibility Wind Dir Wind Speed Gust Speed Precip Events Conditions
12:53 AM 50.0 °F 42.1 °F 74% 29.99 in 10.0 mi Calm Calm - N/A   Clear
1:53 AM 48.9 °F 43.0 °F 80% 29.99 in 10.0 mi Calm Calm - N/A   Clear
2:53 AM 51.1 °F 43.0 °F 74% 29.97 in 10.0 mi South 3.5 mph - N/A   Clear
3:53 AM 57.0 °F 43.0 °F 59% 29.97 in 10.0 mi SSW 3.5 mph - N/A   Mostly Cloudy
4:53 AM 55.0 °F 41.0 °F 59% 29.96 in 10.0 mi SSW 5.8 mph - N/A   Clear
5:53 AM 55.9 °F 42.1 °F 60% 29.96 in 10.0 mi SW 4.6 mph - N/A   Scattered Clouds
6:53 AM 57.9 °F 42.1 °F 56% 29.95 in 10.0 mi SSW 8.1 mph - N/A   Mostly Cloudy
7:53 AM 57.9 °F 44.1 °F 60% 29.95 in 10.0 mi SW 6.9 mph - 0.00 in Rain Light Rain
8:53 AM 59.0 °F 48.0 °F 67% 29.93 in 10.0 mi South 9.2 mph - 0.00 in   Mostly Cloudy
9:53 AM 64.9 °F 50.0 °F 58% 29.89 in 10.0 mi SSW 11.5 mph 18.4 mph N/A   Mostly Cloudy
10:53 AM 71.1 °F 52.0 °F 51% 29.87 in 10.0 mi SSW 15.0 mph 21.9 mph N/A   Mostly Cloudy
11:53 AM 73.0 °F 52.0 °F 48% 29.85 in 10.0 mi SSW 10.4 mph 25.3 mph N/A   Mostly Cloudy
12:53 PM 73.9 °F 51.1 °F 45% 29.83 in 10.0 mi SW 11.5 mph 29.9 mph N/A   Mostly Cloudy
1:53 PM 75.0 °F 50.0 °F 41% 29.80 in 10.0 mi SW 16.1 mph 33.4 mph N/A   Mostly Cloudy
2:53 PM 77.0 °F 46.0 °F 33% 29.78 in 10.0 mi SW 15.0 mph 35.7 mph N/A   Scattered Clouds
3:53 PM 77.0 °F 51.1 °F 40% 29.77 in 10.0 mi SW 15.0 mph 27.6 mph N/A   Scattered Clouds
4:53 PM 77.0 °F 48.0 °F 36% 29.76 in 10.0 mi SW 15.0 mph 32.2 mph N/A   Mostly Cloudy
5:53 PM 75.0 °F 48.9 °F 40% 29.75 in 10.0 mi SW 15.0 mph 29.9 mph N/A   Mostly Cloudy
6:53 PM 73.0 °F 50.0 °F 44% 29.76 in 10.0 mi SW 9.2 mph 20.7 mph N/A   Mostly Cloudy
7:53 PM 72.0 °F 50.0 °F 46% 29.75 in 10.0 mi SSW 17.3 mph 28.8 mph N/A   Mostly Cloudy
8:53 PM 68.0 °F 53.1 °F 59% 29.77 in 10.0 mi SSW 10.4 mph 26.5 mph N/A   Mostly Cloudy